| time (UTC) | temp F | wind direction | speed knots | gust knots | rain 1hr in | rain 24hr in | rain mn in | humidity % | barometer mb |
| 20260901020342 | 69 | 224 | 5.2 | 6.1 | 0.00 | 0.00 | 0.01 | ||
| 20260901013341 | 76 | 183 | 4.3 | 2.6 | 0.00 | 0.00 | 0.01 | ||
| 20260901010340 | 79 | 31 | 0.0 | 0.0 | 0.00 | 0.00 | 0.01 | ||
| 20260901004840 | 82 | 31 | 0.0 | 0.0 | 0.00 | 0.00 | 0.01 | ||
| 20260901003340 | 82 | 32 | 1.7 | 0.9 | 0.00 | 0.00 | 0.01 | ||
| 20260901001840 | 85 | 72 | 0.0 | 0.0 | 0.00 | 0.00 | 0.01 | ||
| 20260901000339 | 87 | 113 | 0.9 | 0.0 | 0.00 | 0.00 | 0.01 | ||
| 20260831234839 | 86 | 139 | 1.7 | 0.9 | 0.00 | 0.00 | 0.01 | ||
| 20260831233339 | 88 | 165 | 0.9 | 1.7 | 0.00 | 0.00 | 0.01 | ||
| 20260831231838 | 91 | 162 | 2.6 | 0.9 | 0.00 | 0.00 | 0.01 | ||
| 20260831230339 | 89 | 180 | 0.9 | 2.6 | 0.00 | 0.00 | 0.01 | ||
| 20260831224838 | 83 | 129 | 0.9 | 0.0 | 0.01 | 0.00 | 0.01 | ||
| 20260831223337 | 80 | 150 | 0.0 | 0.0 | 0.01 | 0.00 | 0.01 | ||
| 20260831220336 | 75 | 228 | 0.0 | 1.7 | 0.01 | 0.00 | 0.01 | ||
| 20260831214836 | 74 | 248 | 0.0 | 0.0 | 0.00 | 0.00 | 0.01 | ||
| 20260831213335 | 82 | 197 | 0.0 | 2.6 | 0.00 | 0.00 | 0.00 | ||
| 20260831210334 | 87 | 165 | 0.9 | 0.9 | 0.00 | 0.00 | 0.00 | ||
| 20260831204833 | 87 | 97 | 5.2 | 0.0 | 0.00 | 0.00 | 0.00 | ||
| 20260831203333 | 86 | 91 | 0.9 | 0.0 | 0.00 | 0.00 | 0.00 | ||
| 20260831201832 | 87 | 120 | 1.7 | 4.3 | 0.00 | 0.00 | 0.00 | ||
| 20260831200331 | 87 | 146 | 4.3 | 2.6 | 0.00 | 0.00 | 0.00 | ||
| 20260831194831 | 87 | 65 | 0.9 | 0.9 | 0.00 | 0.00 | 0.00 | ||
| 20260831193329 | 89 | 131 | 1.7 | 1.7 | 0.00 | 0.00 | 0.00 | ||
| 20260831191829 | 91 | 96 | 1.7 | 0.0 | 0.00 | 0.00 | 0.00 | ||
| 20260831190329 | 90 | 150 | 0.9 | 0.0 | 0.00 | 0.00 | 0.00 | ||
| 20260831184827 | 88 | 103 | 0.0 | 1.7 | 0.00 | 0.00 | 0.00 | ||
| 20260831183327 | 90 | 108 | 0.0 | 0.0 | 0.00 | 0.00 | 0.00 | ||
| 20260831181825 | 91 | 58 | 0.0 | 0.9 | 0.00 | 0.00 | 0.00 | ||
| 20260831180325 | 91 | 28 | 2.6 | 0.9 | 0.00 | 0.00 | 0.00 | ||
| 20260831174823 | 92 | 359 | 3.5 | 3.5 | 0.00 | 0.00 | 0.00 | ||
| 20260831163320 | 89 | 103 | 0.9 | 0.0 | 0.00 | 0.00 | 0.00 | ||
| 20260831161819 | 89 | 39 | 0.0 | 0.0 | 0.00 | 0.00 | 0.00 | ||
| 20260831160319 | 90 | 56 | 1.7 | 0.0 | 0.00 | 0.00 | 0.00 | ||
| 20260831154819 | 90 | 42 | 0.0 | 0.0 | 0.00 | 0.00 | 0.00 | ||
| 20260831153319 | 85 | 101 | 0.0 | 0.0 | 0.00 | 0.00 | 0.00 | ||
| 20260831143317 | 81 | 122 | 0.9 | 0.0 | 0.00 | 0.00 | 0.00 | ||
| 20260831141817 | 79 | 111 | 0.0 | 0.0 | 0.00 | 0.00 | 0.00 | ||
| 20260831093314 | 66 | 101 | 0.0 | 0.0 | 0.00 | 0.00 | 0.00 | ||
| 20260831091814 | 67 | 101 | 0.0 | 0.0 | 0.00 | 0.00 | 0.00 | ||
| 20260831090314 | 67 | 101 | 0.0 | 0.0 | 0.00 | 0.00 | 0.00 | ||
| 20260831084813 | 68 | 101 | 0.0 | 0.0 | 0.00 | 0.00 | 0.00 | ||
| 20260831083313 | 68 | 101 | 0.0 | 0.0 | 0.00 | 0.00 | 0.00 | ||
| 20260831081813 | 68 | 101 | 0.0 | 0.0 | 0.00 | 0.00 | 0.00 | ||
| 20260831080314 | 68 | 101 | 0.0 | 0.0 | 0.00 | 0.00 | 0.00 | ||
| 20260831074812 | 69 | 101 | 0.0 | 0.0 | 0.00 | 0.00 | 0.00 | ||
| 20260831073312 | 69 | 101 | 0.0 | 0.0 | 0.00 | 0.00 | 0.00 | ||
| 20260831071812 | 70 | 226 | 0.0 | 0.0 | 0.00 | 0.00 | 0.00 | ||
| 20260831070311 | 70 | 226 | 0.0 | 0.0 | 0.00 | 0.00 | 0.00 | ||
| 20260831064812 | 69 | 226 | 0.0 | 0.0 | 0.00 | 0.00 | 0.00 | ||
| 20260831063311 | 69 | 226 | 0.0 | 0.0 | 0.00 | 0.00 | 0.00 | ||
| 20260831060310 | 70 | 226 | 0.0 | 0.0 | 0.00 | 0.00 | 0.00 | ||
| 20260831053312 | 69 | 73 | 0.0 | 0.0 | 0.00 | 0.00 | 0.00 | ||
| 20260831051810 | 71 | 73 | 0.0 | 0.0 | 0.00 | 0.00 | 0.00 | ||
| 20260831050309 | 73 | 136 | 0.0 | 0.0 | 0.00 | 0.00 | 0.00 | ||
| 20260831044808 | 73 | 136 | 0.0 | 0.0 | 0.00 | 0.00 | 0.00 | ||
| 20260831043307 | 75 | 136 | 0.0 | 0.0 | 0.00 | 0.00 | 0.00 | ||
| 20260831041806 | 76 | 339 | 0.9 | 0.0 | 0.00 | 0.00 | 0.00 | ||
| 20260831040306 | 76 | 226 | 0.0 | 0.0 | 0.00 | 0.00 | 0.00 | ||
| 20260831034805 | 77 | 226 | 0.0 | 0.0 | 0.00 | 0.00 | 0.00 | ||
| 20260831033305 | 77 | 152 | 0.0 | 0.0 | 0.00 | 0.00 | 0.00 | ||
| 20260831031804 | 77 | 322 | 0.0 | 0.0 | 0.00 | 0.00 | 0.00 | ||
| 20260831030304 | 77 | 339 | 3.5 | 0.9 | 0.00 | 0.00 | 0.00 | ||
| 20260831024803 | 76 | 294 | 0.9 | 0.0 | 0.00 | 0.00 | 0.00 | ||
| 20260831023303 | 76 | 122 | 0.0 | 0.0 | 0.00 | 0.00 | 0.00 | ||
| 20260831021802 | 77 | 122 | 0.0 | 0.0 | 0.00 | 0.00 | 0.00 |